Year,Month,Day,Hour,Minute,Value (Times are PST for temperature in C)
2006,07,21,00,00,15.80
2006,07,21,00,01,15.80
2006,07,21,00,02,15.60
2006,07,21,00,03,15.40
2006,07,21,00,04,15.30
2006,07,21,00,05,15.20
2006,07,21,00,06,15.10
2006,07,21,00,07,15.10
2006,07,21,00,08,15.10
2006,07,21,00,09,15.10
2006,07,21,00,10,14.90
2006,07,21,00,11,14.90
2006,07,21,00,12,14.90
2006,07,21,00,13,14.80
2006,07,21,00,14,14.80
2006,07,21,00,15,14.80
2006,07,21,00,16,14.80
2006,07,21,00,17,14.80
2006,07,21,00,18,14.80
2006,07,21,00,19,14.80
2006,07,21,00,20,14.80
2006,07,21,00,21,14.80
2006,07,21,00,22,14.80
2006,07,21,00,23,14.80
2006,07,21,00,24,14.80
2006,07,21,00,25,14.70
2006,07,21,00,26,14.70
2006,07,21,00,27,14.70
2006,07,21,00,28,14.70
2006,07,21,00,29,14.70
2006,07,21,00,30,14.70
2006,07,21,00,31,14.70
2006,07,21,00,32,14.70
2006,07,21,00,33,14.70
2006,07,21,00,34,14.70
2006,07,21,00,35,14.70
2006,07,21,00,36,14.70
2006,07,21,00,37,14.70
2006,07,21,00,38,14.70
2006,07,21,00,39,14.70
2006,07,21,00,40,14.70
2006,07,21,00,41,14.80
2006,07,21,00,42,14.80
2006,07,21,00,43,14.80
2006,07,21,00,44,14.80
2006,07,21,00,45,14.80
2006,07,21,00,46,14.80
2006,07,21,00,47,14.80
2006,07,21,00,48,14.80
2006,07,21,00,49,14.80
2006,07,21,00,50,14.80
2006,07,21,00,51,14.80
2006,07,21,00,52,14.90
2006,07,21,00,53,14.90
2006,07,21,00,54,14.90
2006,07,21,00,55,14.90
2006,07,21,00,56,14.90
2006,07,21,00,57,14.90
2006,07,21,00,58,15.00
2006,07,21,00,59,15.00
2006,07,21,01,00,15.00
2006,07,21,01,01,15.00
2006,07,21,01,02,15.10
2006,07,21,01,03,15.10
2006,07,21,01,04,15.10
2006,07,21,01,05,15.10
2006,07,21,01,06,15.20
2006,07,21,01,07,15.20
2006,07,21,01,08,15.20
2006,07,21,01,09,15.30
2006,07,21,01,10,15.30
2006,07,21,01,11,15.30
2006,07,21,01,12,15.40
2006,07,21,01,13,15.40
2006,07,21,01,14,15.50
2006,07,21,01,15,15.50
2006,07,21,01,16,15.50
2006,07,21,01,17,15.50
2006,07,21,01,18,15.60
2006,07,21,01,19,15.60
2006,07,21,01,20,15.60
2006,07,21,01,21,15.60
2006,07,21,01,22,15.60
2006,07,21,01,23,15.70
2006,07,21,01,24,15.70
2006,07,21,01,25,15.70
2006,07,21,01,26,15.80
2006,07,21,01,27,15.80
2006,07,21,01,28,15.80
2006,07,21,01,29,15.80
2006,07,21,01,30,15.80
2006,07,21,01,31,15.80
2006,07,21,01,32,15.90
2006,07,21,01,33,15.90
2006,07,21,01,34,15.90
2006,07,21,01,35,15.90
2006,07,21,01,36,16.00
2006,07,21,01,37,16.10
2006,07,21,01,38,16.10
2006,07,21,01,39,16.10
2006,07,21,01,40,16.10
2006,07,21,01,41,16.10
2006,07,21,01,42,16.10
2006,07,21,01,43,16.10
2006,07,21,01,44,16.10
2006,07,21,01,45,16.10
2006,07,21,01,46,16.10
2006,07,21,01,47,16.10
2006,07,21,01,48,16.10
2006,07,21,01,49,16.10
2006,07,21,01,50,16.10
2006,07,21,01,51,16.20
2006,07,21,01,52,16.20
2006,07,21,01,53,16.20
2006,07,21,01,54,16.30
2006,07,21,01,55,16.30
2006,07,21,01,56,16.40
2006,07,21,01,57,16.40
2006,07,21,01,58,16.40
2006,07,21,01,59,16.50
2006,07,21,02,00,16.60
2006,07,21,02,01,16.70
2006,07,21,02,02,16.70
2006,07,21,02,03,16.70
2006,07,21,02,04,16.80
2006,07,21,02,05,16.80
2006,07,21,02,06,16.80
2006,07,21,02,07,16.80
2006,07,21,02,08,16.80
2006,07,21,02,09,16.80
2006,07,21,02,10,16.80
2006,07,21,02,11,16.80
2006,07,21,02,12,16.80
2006,07,21,02,13,16.80
2006,07,21,02,14,16.80
2006,07,21,02,15,16.80
2006,07,21,02,16,16.80
2006,07,21,02,17,16.80
2006,07,21,02,18,16.90
2006,07,21,02,19,17.00
2006,07,21,02,20,17.00
2006,07,21,02,21,17.20
2006,07,21,02,22,17.20
2006,07,21,02,23,17.30
2006,07,21,02,24,17.30
2006,07,21,02,25,17.30
2006,07,21,02,26,17.30
2006,07,21,02,27,17.30
2006,07,21,02,28,17.40
2006,07,21,02,29,17.50
2006,07,21,02,30,17.50
2006,07,21,02,31,17.50
2006,07,21,02,32,17.60
2006,07,21,02,33,17.60
2006,07,21,02,34,17.60
2006,07,21,02,35,17.60
2006,07,21,02,36,17.60
2006,07,21,02,37,17.60
2006,07,21,02,38,17.60
2006,07,21,02,39,17.60
2006,07,21,02,40,17.60
2006,07,21,02,41,17.70
2006,07,21,02,42,17.70
2006,07,21,02,43,17.70
2006,07,21,02,44,17.70
2006,07,21,02,45,17.70
2006,07,21,02,46,17.70
2006,07,21,02,47,17.70
2006,07,21,02,48,17.70
2006,07,21,02,49,17.70
2006,07,21,02,50,17.70
2006,07,21,02,51,17.70
2006,07,21,02,52,17.70
2006,07,21,02,53,17.70
2006,07,21,02,54,17.70
2006,07,21,02,55,17.70
2006,07,21,02,56,17.70
2006,07,21,02,57,17.60
2006,07,21,02,58,17.60
2006,07,21,02,59,17.60
2006,07,21,03,00,17.60
2006,07,21,03,01,17.70
2006,07,21,03,02,17.70
2006,07,21,03,03,17.70
2006,07,21,03,04,17.70
2006,07,21,03,05,17.70
2006,07,21,03,06,17.70
2006,07,21,03,07,17.70
2006,07,21,03,08,17.70
2006,07,21,03,09,17.70
2006,07,21,03,10,17.70
2006,07,21,03,11,17.60
2006,07,21,03,12,17.60
2006,07,21,03,13,17.60
2006,07,21,03,14,17.60
2006,07,21,03,15,17.50
2006,07,21,03,16,17.50
2006,07,21,03,17,17.50
2006,07,21,03,18,17.50
2006,07,21,03,19,17.40
2006,07,21,03,20,17.40
2006,07,21,03,21,17.40
2006,07,21,03,22,17.40
2006,07,21,03,23,17.30
2006,07,21,03,24,17.30
2006,07,21,03,25,17.30
2006,07,21,03,26,17.30
2006,07,21,03,27,17.30
2006,07,21,03,28,17.30
2006,07,21,03,29,17.20
2006,07,21,03,30,17.20
2006,07,21,03,31,17.20
2006,07,21,03,32,17.20
2006,07,21,03,33,17.20
2006,07,21,03,34,17.10
2006,07,21,03,35,17.10
2006,07,21,03,36,17.10
2006,07,21,03,37,17.00
2006,07,21,03,38,17.00
2006,07,21,03,39,17.00
2006,07,21,03,40,17.00
2006,07,21,03,41,16.90
2006,07,21,03,42,16.90
2006,07,21,03,43,16.90
2006,07,21,03,44,16.90
2006,07,21,03,45,16.90
2006,07,21,03,46,16.80
2006,07,21,03,47,16.80
2006,07,21,03,48,16.70
2006,07,21,03,49,16.70
2006,07,21,03,50,16.70
2006,07,21,03,51,16.70
2006,07,21,03,52,16.70
2006,07,21,03,53,16.60
2006,07,21,03,54,16.60
2006,07,21,03,55,16.60
2006,07,21,03,56,16.60
2006,07,21,03,57,16.60
2006,07,21,03,58,16.50
2006,07,21,03,59,16.40
2006,07,21,04,00,16.40
2006,07,21,04,01,16.40
2006,07,21,04,02,16.30
2006,07,21,04,03,16.30
2006,07,21,04,04,16.20
2006,07,21,04,05,16.10
2006,07,21,04,06,16.10
2006,07,21,04,07,16.10
2006,07,21,04,08,16.00
2006,07,21,04,09,15.90
2006,07,21,04,10,15.90
2006,07,21,04,11,15.90
2006,07,21,04,12,15.80
2006,07,21,04,13,15.80
2006,07,21,04,14,15.80
2006,07,21,04,15,15.80
2006,07,21,04,16,15.70
2006,07,21,04,17,15.70
2006,07,21,04,18,15.70
2006,07,21,04,19,15.60
2006,07,21,04,20,15.60
2006,07,21,04,21,15.60
2006,07,21,04,22,15.60
2006,07,21,04,23,15.60
2006,07,21,04,24,15.60
2006,07,21,04,25,15.70
2006,07,21,04,26,15.70
2006,07,21,04,27,15.80
2006,07,21,04,28,15.80
2006,07,21,04,29,15.80
2006,07,21,04,30,15.80
2006,07,21,04,31,15.80
2006,07,21,04,32,15.80
2006,07,21,04,33,15.80
2006,07,21,04,34,15.70
2006,07,21,04,35,15.70
2006,07,21,04,36,15.70
2006,07,21,04,37,15.70
2006,07,21,04,38,15.70
2006,07,21,04,39,15.70
2006,07,21,04,40,15.70
2006,07,21,04,41,15.60
2006,07,21,04,42,15.50
2006,07,21,04,43,15.50
2006,07,21,04,44,15.50
2006,07,21,04,45,15.40
2006,07,21,04,46,15.30
2006,07,21,04,47,15.30
2006,07,21,04,48,15.30
2006,07,21,04,49,15.30
2006,07,21,04,50,15.20
2006,07,21,04,51,15.20
2006,07,21,04,52,15.10
2006,07,21,04,53,15.10
2006,07,21,04,54,15.10
2006,07,21,04,55,15.00
2006,07,21,04,56,15.00
2006,07,21,04,57,14.90
2006,07,21,04,58,14.90
2006,07,21,04,59,14.80
2006,07,21,05,00,14.80
2006,07,21,05,01,14.80
2006,07,21,05,02,14.80
2006,07,21,05,03,14.80
2006,07,21,05,04,14.70
2006,07,21,05,05,14.70
2006,07,21,05,06,14.70
2006,07,21,05,07,14.70
2006,07,21,05,08,14.70
2006,07,21,05,09,14.70
2006,07,21,05,10,14.60
2006,07,21,05,11,14.60
2006,07,21,05,12,14.60
2006,07,21,05,13,14.60
2006,07,21,05,14,14.60
2006,07,21,05,15,14.60
2006,07,21,05,16,14.60
2006,07,21,05,17,14.60
2006,07,21,05,18,14.60
2006,07,21,05,19,14.50
2006,07,21,05,20,14.50
2006,07,21,05,21,14.50
2006,07,21,05,22,14.50
2006,07,21,05,23,14.50
2006,07,21,05,24,14.50
2006,07,21,05,25,14.50
2006,07,21,05,26,14.50
2006,07,21,05,27,14.60
2006,07,21,05,28,14.60
2006,07,21,05,29,14.60
2006,07,21,05,30,14.60
2006,07,21,05,31,14.60
2006,07,21,05,32,14.60
2006,07,21,05,33,14.60
2006,07,21,05,34,14.60
2006,07,21,05,35,14.60
2006,07,21,05,36,14.60
2006,07,21,05,37,14.60
2006,07,21,05,38,14.60
2006,07,21,05,39,14.60
2006,07,21,05,40,14.60
2006,07,21,05,41,14.60
2006,07,21,05,42,14.60
2006,07,21,05,43,14.70
2006,07,21,05,44,14.70
2006,07,21,05,45,14.80
2006,07,21,05,46,14.80
2006,07,21,05,47,14.80
2006,07,21,05,48,14.80
2006,07,21,05,49,14.80
2006,07,21,05,50,14.80
2006,07,21,05,51,14.80
2006,07,21,05,52,14.80
2006,07,21,05,53,14.80
2006,07,21,05,54,14.80
2006,07,21,05,55,14.90
2006,07,21,05,56,14.90
2006,07,21,05,57,14.90
2006,07,21,05,58,14.90
2006,07,21,05,59,15.00
2006,07,21,06,00,15.10
2006,07,21,06,01,15.10
2006,07,21,06,02,15.20
2006,07,21,06,03,15.20
2006,07,21,06,04,15.30
2006,07,21,06,05,15.30
2006,07,21,06,06,15.30
2006,07,21,06,07,15.50
2006,07,21,06,08,15.50
2006,07,21,06,09,15.60
2006,07,21,06,10,15.70
2006,07,21,06,11,15.80
2006,07,21,06,12,15.90
2006,07,21,06,13,16.00
2006,07,21,06,14,16.10
2006,07,21,06,15,16.20
2006,07,21,06,16,16.20
2006,07,21,06,17,16.30
2006,07,21,06,18,16.30
2006,07,21,06,19,16.30
2006,07,21,06,20,16.40
2006,07,21,06,21,16.40
2006,07,21,06,22,16.40
2006,07,21,06,23,16.30
2006,07,21,06,24,16.20
2006,07,21,06,25,16.20
2006,07,21,06,26,15.90
2006,07,21,06,27,15.80
2006,07,21,06,28,15.80
2006,07,21,06,29,15.70
2006,07,21,06,30,15.60
2006,07,21,06,31,15.60
2006,07,21,06,32,15.60
2006,07,21,06,33,15.50
2006,07,21,06,34,15.60
2006,07,21,06,35,15.60
2006,07,21,06,36,15.60
2006,07,21,06,37,15.60
2006,07,21,06,38,15.70
2006,07,21,06,39,15.80
2006,07,21,06,40,15.80
2006,07,21,06,41,15.90
2006,07,21,06,42,16.10
2006,07,21,06,43,16.10
2006,07,21,06,44,16.20
2006,07,21,06,45,16.30
2006,07,21,06,46,16.30
2006,07,21,06,47,16.40
2006,07,21,06,48,16.40
2006,07,21,06,49,16.40
2006,07,21,06,50,16.60
2006,07,21,06,51,16.60
2006,07,21,06,52,16.70
2006,07,21,06,53,16.70
2006,07,21,06,54,16.80
2006,07,21,06,55,16.90
2006,07,21,06,56,16.90
2006,07,21,06,57,16.90
2006,07,21,06,58,17.00
2006,07,21,06,59,17.00
2006,07,21,07,00,17.00
2006,07,21,07,01,17.00
2006,07,21,07,02,17.00
2006,07,21,07,03,17.00
2006,07,21,07,04,17.00
2006,07,21,07,05,17.00
2006,07,21,07,06,16.90
2006,07,21,07,07,16.90
2006,07,21,07,08,16.80
2006,07,21,07,09,16.70
2006,07,21,07,10,16.70
2006,07,21,07,11,16.70
2006,07,21,07,12,16.70
2006,07,21,07,13,16.70
2006,07,21,07,14,16.70
2006,07,21,07,15,16.80
2006,07,21,07,16,16.90
2006,07,21,07,17,17.00
2006,07,21,07,18,17.10
2006,07,21,07,19,17.30
2006,07,21,07,20,17.30
2006,07,21,07,21,17.50
2006,07,21,07,22,17.50
2006,07,21,07,23,17.60
2006,07,21,07,24,17.70
2006,07,21,07,25,17.70
2006,07,21,07,26,17.70
2006,07,21,07,27,17.70
2006,07,21,07,28,17.80
2006,07,21,07,29,17.80
2006,07,21,07,30,17.70
2006,07,21,07,31,17.50
2006,07,21,07,32,17.20
2006,07,21,07,33,16.80
2006,07,21,07,34,16.60
2006,07,21,07,35,16.50
2006,07,21,07,36,16.30
2006,07,21,07,37,16.20
2006,07,21,07,38,16.20
2006,07,21,07,39,16.20
2006,07,21,07,40,16.30
2006,07,21,07,41,16.30
2006,07,21,07,42,16.40
2006,07,21,07,43,16.40
2006,07,21,07,44,16.60
2006,07,21,07,45,16.70
2006,07,21,07,46,16.80
2006,07,21,07,47,16.80
2006,07,21,07,48,16.80
2006,07,21,07,49,16.80
2006,07,21,07,50,16.90
2006,07,21,07,51,16.90
2006,07,21,07,52,17.00
2006,07,21,07,53,17.20
2006,07,21,07,54,17.30
2006,07,21,07,55,17.40
2006,07,21,07,56,17.50
2006,07,21,07,57,17.60
2006,07,21,07,58,17.70
2006,07,21,07,59,17.80
2006,07,21,08,00,17.90
2006,07,21,08,01,17.90
2006,07,21,08,02,18.00
2006,07,21,08,03,18.10
2006,07,21,08,04,18.20
2006,07,21,08,05,18.20
2006,07,21,08,06,18.20
2006,07,21,08,07,18.20
2006,07,21,08,08,18.20
2006,07,21,08,09,18.20
2006,07,21,08,10,18.40
2006,07,21,08,11,18.40
2006,07,21,08,12,18.40
2006,07,21,08,13,18.40
2006,07,21,08,14,18.40
2006,07,21,08,15,18.60
2006,07,21,08,16,18.60
2006,07,21,08,17,18.60
2006,07,21,08,18,18.70
2006,07,21,08,19,18.70
2006,07,21,08,20,18.80
2006,07,21,08,21,18.80
2006,07,21,08,22,18.80
2006,07,21,08,23,18.70
2006,07,21,08,24,18.50
2006,07,21,08,25,18.30
2006,07,21,08,26,18.00
2006,07,21,08,27,17.90
2006,07,21,08,28,17.80
2006,07,21,08,29,17.80
2006,07,21,08,30,17.90
2006,07,21,08,31,18.00
2006,07,21,08,32,18.10
2006,07,21,08,33,18.20
2006,07,21,08,34,18.30
2006,07,21,08,35,18.40
2006,07,21,08,36,18.60
2006,07,21,08,37,18.80
2006,07,21,08,38,19.00
2006,07,21,08,39,19.10
2006,07,21,08,40,19.30
2006,07,21,08,41,19.30
2006,07,21,08,42,19.40
2006,07,21,08,43,19.40
2006,07,21,08,44,19.50
2006,07,21,08,45,19.60
2006,07,21,08,46,19.60
2006,07,21,08,47,19.70
2006,07,21,08,48,19.70
2006,07,21,08,49,19.80
2006,07,21,08,50,20.00
2006,07,21,08,51,20.20
2006,07,21,08,52,20.20
2006,07,21,08,53,20.20
2006,07,21,08,54,20.20
2006,07,21,08,55,20.20
2006,07,21,08,56,20.20
2006,07,21,08,57,20.20
2006,07,21,08,58,20.20
2006,07,21,08,59,20.30
2006,07,21,09,00,20.30
2006,07,21,09,01,20.40
2006,07,21,09,02,20.40
2006,07,21,09,03,20.50
2006,07,21,09,04,20.50
2006,07,21,09,05,20.70
2006,07,21,09,06,20.80
2006,07,21,09,07,20.60
2006,07,21,09,08,20.10
2006,07,21,09,09,19.50
2006,07,21,09,10,19.10
2006,07,21,09,11,18.80
2006,07,21,09,12,18.50
2006,07,21,09,13,18.40
2006,07,21,09,14,18.10
2006,07,21,09,15,17.90
2006,07,21,09,16,17.70
2006,07,21,09,17,17.50
2006,07,21,09,18,17.40
2006,07,21,09,19,17.30
2006,07,21,09,20,17.20
2006,07,21,09,21,17.30
2006,07,21,09,22,17.30
2006,07,21,09,23,17.30
2006,07,21,09,24,17.30
2006,07,21,09,25,17.30
2006,07,21,09,26,17.40
2006,07,21,09,27,17.60
2006,07,21,09,28,17.60
2006,07,21,09,29,17.40
2006,07,21,09,30,17.40
2006,07,21,09,31,17.30
2006,07,21,09,32,17.40
2006,07,21,09,33,17.40
2006,07,21,09,34,17.50
2006,07,21,09,35,17.50
2006,07,21,09,36,17.60
2006,07,21,09,37,17.70
2006,07,21,09,38,17.80
2006,07,21,09,39,17.80
2006,07,21,09,40,17.70
2006,07,21,09,41,17.70
2006,07,21,09,42,17.50
2006,07,21,09,43,17.50
2006,07,21,09,44,17.60
2006,07,21,09,45,17.70
2006,07,21,09,46,17.80
2006,07,21,09,47,17.90
2006,07,21,09,48,18.00
2006,07,21,09,49,18.20
2006,07,21,09,50,18.30
2006,07,21,09,51,18.40
2006,07,21,09,52,18.50
2006,07,21,09,53,18.60
2006,07,21,09,54,18.70
2006,07,21,09,55,18.70
2006,07,21,09,56,18.80
2006,07,21,09,57,18.80
2006,07,21,09,58,18.80
2006,07,21,09,59,18.80
2006,07,21,10,00,18.80
2006,07,21,10,01,18.90
2006,07,21,10,02,18.90
2006,07,21,10,03,18.90
2006,07,21,10,04,19.00
2006,07,21,10,05,19.10
2006,07,21,10,06,19.10
2006,07,21,10,07,19.20
2006,07,21,10,08,19.20
2006,07,21,10,09,19.20
2006,07,21,10,10,19.20
2006,07,21,10,11,19.10
2006,07,21,10,12,19.10
2006,07,21,10,13,19.20
2006,07,21,10,14,19.30
2006,07,21,10,15,19.20
2006,07,21,10,16,19.10
2006,07,21,10,17,19.10
2006,07,21,10,18,18.80
2006,07,21,10,19,18.70
2006,07,21,10,20,18.60
2006,07,21,10,21,18.60
2006,07,21,10,22,18.50
2006,07,21,10,23,18.50
2006,07,21,10,24,18.40
2006,07,21,10,25,18.40
2006,07,21,10,26,18.30
2006,07,21,10,27,18.30
2006,07,21,10,28,18.30
2006,07,21,10,29,18.30
2006,07,21,10,30,18.30
2006,07,21,10,31,18.30
2006,07,21,10,32,18.20
2006,07,21,10,33,18.10
2006,07,21,10,34,18.10
2006,07,21,10,35,18.10
2006,07,21,10,36,18.20
2006,07,21,10,37,18.20
2006,07,21,10,38,18.20
2006,07,21,10,39,18.20
2006,07,21,10,40,18.20
2006,07,21,10,41,18.20
2006,07,21,10,42,18.20
2006,07,21,10,43,18.20
2006,07,21,10,44,18.20
2006,07,21,10,45,18.20
2006,07,21,10,46,18.20
2006,07,21,10,47,18.00
2006,07,21,10,48,17.90
2006,07,21,10,49,17.90
2006,07,21,10,50,17.80
2006,07,21,10,51,17.80
2006,07,21,10,52,17.80
2006,07,21,10,53,17.80
2006,07,21,10,54,17.80
2006,07,21,10,55,17.70
2006,07,21,10,56,17.80
2006,07,21,10,57,17.90
2006,07,21,10,58,18.00
2006,07,21,10,59,18.20
2006,07,21,11,00,18.30
2006,07,21,11,01,18.50
2006,07,21,11,02,18.50
2006,07,21,11,03,18.60
2006,07,21,11,04,18.60
2006,07,21,11,05,18.60
2006,07,21,11,06,18.80
2006,07,21,11,07,19.20
2006,07,21,11,08,19.30
2006,07,21,11,09,19.40
2006,07,21,11,10,19.50
2006,07,21,11,11,19.60
2006,07,21,11,12,19.70
2006,07,21,11,13,19.80
2006,07,21,11,14,19.80
2006,07,21,11,15,19.80
2006,07,21,11,16,19.60
2006,07,21,11,17,19.30
2006,07,21,11,18,19.20
2006,07,21,11,19,19.00
2006,07,21,11,20,18.90
2006,07,21,11,21,18.90
2006,07,21,11,22,18.90
2006,07,21,11,23,18.90
2006,07,21,11,24,18.90
2006,07,21,11,25,19.00
2006,07,21,11,26,19.20
2006,07,21,11,27,19.30
2006,07,21,11,28,19.40
2006,07,21,11,29,19.40
2006,07,21,11,30,19.30
2006,07,21,11,31,19.10
2006,07,21,11,32,19.00
2006,07,21,11,33,18.90
2006,07,21,11,34,18.90
2006,07,21,11,35,18.90
2006,07,21,11,36,19.00
2006,07,21,11,37,19.10
2006,07,21,11,38,19.10
2006,07,21,11,39,19.20
2006,07,21,11,40,19.30
2006,07,21,11,41,19.30
2006,07,21,11,42,19.30
2006,07,21,11,43,19.10
2006,07,21,11,44,19.10
2006,07,21,11,45,18.90
2006,07,21,11,46,18.90
2006,07,21,11,47,19.00
2006,07,21,11,48,19.10
2006,07,21,11,49,19.20
2006,07,21,11,50,19.40
2006,07,21,11,51,19.60
2006,07,21,11,52,19.70
2006,07,21,11,53,19.80
2006,07,21,11,54,19.80
2006,07,21,11,55,19.70
2006,07,21,11,56,19.70
2006,07,21,11,57,19.70
2006,07,21,11,58,19.80
2006,07,21,11,59,19.90
2006,07,21,12,00,20.00
2006,07,21,12,01,20.10
2006,07,21,12,02,20.20
2006,07,21,12,03,20.40
2006,07,21,12,04,20.70
2006,07,21,12,05,20.90
2006,07,21,12,06,21.10
2006,07,21,12,07,21.30
2006,07,21,12,08,21.50
2006,07,21,12,09,21.70
2006,07,21,12,10,21.70
2006,07,21,12,11,21.70
2006,07,21,12,12,21.60
2006,07,21,12,13,21.30
2006,07,21,12,14,20.90
2006,07,21,12,15,20.50
2006,07,21,12,16,20.30
2006,07,21,12,17,20.10
2006,07,21,12,18,20.10
2006,07,21,12,19,20.10
2006,07,21,12,20,20.10
2006,07,21,12,21,20.10
2006,07,21,12,22,20.10
2006,07,21,12,23,20.00
2006,07,21,12,24,20.10
2006,07,21,12,25,19.90
2006,07,21,12,26,19.90
2006,07,21,12,27,19.90
2006,07,21,12,28,20.00
2006,07,21,12,29,20.20
2006,07,21,12,30,20.30
2006,07,21,12,31,20.30
2006,07,21,12,32,20.40
2006,07,21,12,33,20.40
2006,07,21,12,34,20.30
2006,07,21,12,35,20.30
2006,07,21,12,36,20.20
2006,07,21,12,37,20.20
2006,07,21,12,38,20.20
2006,07,21,12,39,20.20
2006,07,21,12,40,20.20
2006,07,21,12,41,20.20
2006,07,21,12,42,20.10
2006,07,21,12,43,20.10
2006,07,21,12,44,20.10
2006,07,21,12,45,20.00
2006,07,21,12,46,19.90
2006,07,21,12,47,20.00
2006,07,21,12,48,20.10
2006,07,21,12,49,20.10
2006,07,21,12,50,20.10
2006,07,21,12,51,20.10
2006,07,21,12,52,20.20
2006,07,21,12,53,20.20
2006,07,21,12,54,20.20
2006,07,21,12,55,20.20
2006,07,21,12,56,20.10
2006,07,21,12,57,20.00
2006,07,21,12,58,19.90
2006,07,21,12,59,19.90
2006,07,21,13,00,20.00
2006,07,21,13,01,20.10
2006,07,21,13,02,20.20
2006,07,21,13,03,20.20
2006,07,21,13,04,20.20
2006,07,21,13,05,20.20
2006,07,21,13,06,20.20
2006,07,21,13,07,20.20
2006,07,21,13,08,20.20
2006,07,21,13,09,20.20
2006,07,21,13,10,20.40
2006,07,21,13,11,20.60
2006,07,21,13,12,20.70
2006,07,21,13,13,20.80
2006,07,21,13,14,20.80
2006,07,21,13,15,20.80
2006,07,21,13,16,20.90
2006,07,21,13,17,20.90
2006,07,21,13,18,20.90
2006,07,21,13,19,20.90
2006,07,21,13,20,20.90
2006,07,21,13,21,20.90
2006,07,21,13,22,21.00
2006,07,21,13,23,21.10
2006,07,21,13,24,21.30
2006,07,21,13,25,21.30
2006,07,21,13,26,21.30
2006,07,21,13,27,21.20
2006,07,21,13,28,21.10
2006,07,21,13,29,21.00
2006,07,21,13,30,20.90
2006,07,21,13,31,20.90
2006,07,21,13,32,20.90
2006,07,21,13,33,21.00
2006,07,21,13,34,20.90
2006,07,21,13,35,20.80
2006,07,21,13,36,20.60
2006,07,21,13,37,20.50
2006,07,21,13,38,20.50
2006,07,21,13,39,20.40
2006,07,21,13,40,20.60
2006,07,21,13,41,20.70
2006,07,21,13,42,20.80
2006,07,21,13,43,20.70
2006,07,21,13,44,20.80
2006,07,21,13,45,20.90
2006,07,21,13,46,21.00
2006,07,21,13,47,21.00
2006,07,21,13,48,21.10
2006,07,21,13,49,21.10
2006,07,21,13,50,21.10
2006,07,21,13,51,21.00
2006,07,21,13,52,21.00
2006,07,21,13,53,21.00
2006,07,21,13,54,21.00
2006,07,21,13,55,21.00
2006,07,21,13,56,20.70
2006,07,21,13,57,20.70
2006,07,21,13,58,20.70
2006,07,21,13,59,20.70
2006,07,21,14,00,20.70
2006,07,21,14,01,20.70
2006,07,21,14,02,20.80
2006,07,21,14,03,20.80
2006,07,21,14,04,20.80
2006,07,21,14,05,20.80
2006,07,21,14,06,20.80
2006,07,21,14,07,20.80
2006,07,21,14,08,20.90
2006,07,21,14,09,21.00
2006,07,21,14,10,21.00
2006,07,21,14,11,20.90
2006,07,21,14,12,20.90
2006,07,21,14,13,20.90
2006,07,21,14,14,20.90
2006,07,21,14,15,20.80
2006,07,21,14,16,20.70
2006,07,21,14,17,20.60
2006,07,21,14,18,20.60
2006,07,21,14,19,20.60
2006,07,21,14,20,20.60
2006,07,21,14,21,20.50
2006,07,21,14,22,20.60
2006,07,21,14,23,20.70
2006,07,21,14,24,20.70
2006,07,21,14,25,20.70
2006,07,21,14,26,21.00
2006,07,21,14,27,21.10
2006,07,21,14,28,21.10
2006,07,21,14,29,21.10
2006,07,21,14,30,21.10
2006,07,21,14,31,21.10
2006,07,21,14,32,21.20
2006,07,21,14,33,21.20
2006,07,21,14,34,21.30
2006,07,21,14,35,21.40
2006,07,21,14,36,21.40
2006,07,21,14,37,21.40
2006,07,21,14,38,21.40
2006,07,21,14,39,21.60
2006,07,21,14,40,21.70
2006,07,21,14,41,21.60
2006,07,21,14,42,21.60
2006,07,21,14,43,21.60
2006,07,21,14,44,21.50
2006,07,21,14,45,21.40
2006,07,21,14,46,21.40
2006,07,21,14,47,21.20
2006,07,21,14,48,21.10
2006,07,21,14,49,21.10
2006,07,21,14,50,21.10
2006,07,21,14,51,21.10
2006,07,21,14,52,21.00
2006,07,21,14,53,20.90
2006,07,21,14,54,20.80
2006,07,21,14,55,20.70
2006,07,21,14,56,20.70
2006,07,21,14,57,20.70
2006,07,21,14,58,20.70
2006,07,21,14,59,20.70
2006,07,21,15,00,20.70
2006,07,21,15,01,20.50
2006,07,21,15,02,20.50
2006,07,21,15,03,20.50
2006,07,21,15,04,20.50
2006,07,21,15,05,20.50
2006,07,21,15,06,20.60
2006,07,21,15,07,20.70
2006,07,21,15,08,20.70
2006,07,21,15,09,20.90
2006,07,21,15,10,21.00
2006,07,21,15,11,21.10
2006,07,21,15,12,21.10
2006,07,21,15,13,21.20
2006,07,21,15,14,21.30
2006,07,21,15,15,21.30
2006,07,21,15,16,21.30
2006,07,21,15,17,21.40
2006,07,21,15,18,21.50
2006,07,21,15,19,21.40
2006,07,21,15,20,21.40
2006,07,21,15,21,21.40
2006,07,21,15,22,21.40
2006,07,21,15,23,21.40
2006,07,21,15,24,21.40
2006,07,21,15,25,21.40
2006,07,21,15,26,21.40
2006,07,21,15,27,21.30
2006,07,21,15,28,21.30
2006,07,21,15,29,21.30
2006,07,21,15,30,21.30
2006,07,21,15,31,21.30
2006,07,21,15,32,21.40
2006,07,21,15,33,21.50
2006,07,21,15,34,21.60
2006,07,21,15,35,21.60
2006,07,21,15,36,21.60
2006,07,21,15,37,21.60
2006,07,21,15,38,21.60
2006,07,21,15,39,21.60
2006,07,21,15,40,21.60
2006,07,21,15,41,21.60
2006,07,21,15,42,21.60
2006,07,21,15,43,21.60
2006,07,21,15,44,21.70
2006,07,21,15,45,21.80
2006,07,21,15,46,21.80
2006,07,21,15,47,21.90
2006,07,21,15,48,22.00
2006,07,21,15,49,22.00
2006,07,21,15,50,21.90
2006,07,21,15,51,21.80
2006,07,21,15,52,21.70
2006,07,21,15,53,21.60
2006,07,21,15,54,21.60
2006,07,21,15,55,21.60
2006,07,21,15,56,21.60
2006,07,21,15,57,21.60
2006,07,21,15,58,21.70
2006,07,21,15,59,21.90
2006,07,21,16,00,22.00
2006,07,21,16,01,22.00
2006,07,21,16,02,22.10
2006,07,21,16,03,22.10
2006,07,21,16,04,22.10
2006,07,21,16,05,22.10
2006,07,21,16,06,22.10
2006,07,21,16,07,22.10
2006,07,21,16,08,22.20
2006,07,21,16,09,22.20
2006,07,21,16,10,22.30
2006,07,21,16,11,22.30
2006,07,21,16,12,22.30
2006,07,21,16,13,22.20
2006,07,21,16,14,22.20
2006,07,21,16,15,22.20
2006,07,21,16,16,22.10
2006,07,21,16,17,22.10
2006,07,21,16,18,22.20
2006,07,21,16,19,22.20
2006,07,21,16,20,22.30
2006,07,21,16,21,22.30
2006,07,21,16,22,22.30
2006,07,21,16,23,22.40
2006,07,21,16,24,22.40
2006,07,21,16,25,22.50
2006,07,21,16,26,22.50
2006,07,21,16,27,22.40
2006,07,21,16,28,22.30
2006,07,21,16,29,22.30
2006,07,21,16,30,22.30
2006,07,21,16,31,22.40
2006,07,21,16,32,22.40
2006,07,21,16,33,22.30
2006,07,21,16,34,22.30
2006,07,21,16,35,22.30
2006,07,21,16,36,22.30
2006,07,21,16,37,22.40
2006,07,21,16,38,22.40
2006,07,21,16,39,22.50
2006,07,21,16,40,22.50
2006,07,21,16,41,22.50
2006,07,21,16,42,22.50
2006,07,21,16,43,22.60
2006,07,21,16,44,22.70
2006,07,21,16,45,22.80
2006,07,21,16,46,22.80
2006,07,21,16,47,22.80
2006,07,21,16,48,22.80
2006,07,21,16,49,22.80
2006,07,21,16,50,22.70
2006,07,21,16,51,22.60
2006,07,21,16,52,22.60
2006,07,21,16,53,22.60
2006,07,21,16,54,22.60
2006,07,21,16,55,22.70
2006,07,21,16,56,22.80
2006,07,21,16,57,22.80
2006,07,21,16,58,22.80
2006,07,21,16,59,22.70
2006,07,21,17,00,22.70
2006,07,21,17,01,22.70
2006,07,21,17,02,22.70
2006,07,21,17,03,22.80
2006,07,21,17,04,22.80
2006,07,21,17,05,22.80
2006,07,21,17,06,22.90
2006,07,21,17,07,22.90
2006,07,21,17,08,22.90
2006,07,21,17,09,22.90
2006,07,21,17,10,22.90
2006,07,21,17,11,22.90
2006,07,21,17,12,22.90
2006,07,21,17,13,22.90
2006,07,21,17,14,22.90
2006,07,21,17,15,23.00
2006,07,21,17,16,23.10
2006,07,21,17,17,23.10
2006,07,21,17,18,23.30
2006,07,21,17,19,23.30